2018-097D (43754 NORAD) Tracking and Keplerian Element Data

This shows tracking and keplerian element data for the satellite.

Feedback or suggestion? Click here.




ElementValue
Catalog43754
Name2018-097D
Epoch Orbit126
Epoch Day344.01134056
Epoch Year2018
RAAN126.6968
Inclination82.5116
Eccentricity0.021472
Argument of Perigee249.9125
Mean Anonmoly107.8718
Mean Motion12.80052724
Decay Rate4.6E-07
L11 43754U 18097D 18344.01134056 .00000046 00000-0 14659-3 0 9996
L22 43754 82.5116 126.6968 0214720 249.9125 107.8718 12.80052724 1266

Live tracking and technical data element details for 2018-097D (NORAD 43754). 2018-097D can be tracked NOW for your location showing map with azimuth and elevation plus other details from your city location.

Track the satellite on the map from your city or location and see movement details for azimuth, elevation, latitude, longitude, range, height, and movement on the map or in text.







IsCatalogInMostPopularTable: catalog: 43754, numindb: 3
Update: records affected: 1



GetName: 43754 2018-097D

Hit Count: updated at: Tue, 11 Dec 2018 02:43:47 GMT